TimeCST,TemperatureF,Dew PointF,Humidity,Sea Level PressureIn,VisibilityMPH,Wind Direction,Wind SpeedMPH,Gust SpeedMPH,PrecipitationIn,Events,Conditions,WindDirDegrees,DateUTC
12:15 AM,22.1,13.1,68,30.39,10.0,Calm,Calm,-,N/A,,Clear,0,2012-11-24 06:15:00
12:35 AM,21.9,14.0,72,30.39,10.0,Calm,Calm,-,N/A,,Clear,0,2012-11-24 06:35:00
12:55 AM,21.2,13.6,73,30.38,10.0,Calm,Calm,-,N/A,,Clear,0,2012-11-24 06:55:00
1:15 AM,21.4,13.5,72,30.38,10.0,Calm,Calm,-,N/A,,Clear,0,2012-11-24 07:15:00
1:35 AM,21.0,15.1,78,30.37,10.0,Calm,Calm,-,N/A,,Clear,0,2012-11-24 07:35:00
1:55 AM,21.0,15.3,78,30.37,10.0,Calm,Calm,-,N/A,,Clear,0,2012-11-24 07:55:00
2:15 AM,20.8,15.4,80,30.35,10.0,Calm,Calm,-,N/A,,Clear,0,2012-11-24 08:15:00
2:35 AM,20.8,14.0,75,30.34,10.0,Calm,Calm,-,N/A,,Clear,0,2012-11-24 08:35:00
2:55 AM,21.0,13.8,74,30.34,10.0,Calm,Calm,-,N/A,,Clear,0,2012-11-24 08:55:00
3:15 AM,21.6,13.3,70,30.35,10.0,Calm,Calm,-,N/A,,Clear,0,2012-11-24 09:15:00
3:55 AM,21.2,14.0,74,30.33,10.0,Calm,Calm,-,N/A,,Clear,0,2012-11-24 09:55:00
4:15 AM,21.0,14.0,74,30.33,10.0,Calm,Calm,-,N/A,,Clear,0,2012-11-24 10:15:00
4:35 AM,21.7,13.8,72,30.31,10.0,Calm,Calm,-,N/A,,Clear,0,2012-11-24 10:35:00
4:55 AM,20.8,14.0,75,30.30,10.0,SE,3.5,-,N/A,,Clear,140,2012-11-24 10:55:00
5:15 AM,21.6,14.4,74,30.30,10.0,Calm,Calm,-,N/A,,Clear,0,2012-11-24 11:15:00
5:35 AM,21.9,16.0,78,30.29,10.0,SE,3.5,-,N/A,,Clear,130,2012-11-24 11:35:00
5:55 AM,22.1,17.2,82,30.28,10.0,SE,5.8,-,N/A,,Clear,140,2012-11-24 11:55:00
6:15 AM,22.6,17.6,81,30.28,10.0,SE,4.6,-,N/A,,Clear,140,2012-11-24 12:15:00
6:35 AM,23.4,16.7,76,30.26,10.0,SE,6.9,-,N/A,,Clear,130,2012-11-24 12:35:00
6:55 AM,23.7,15.4,71,30.26,10.0,SE,4.6,-,N/A,,Clear,130,2012-11-24 12:55:00
7:15 AM,23.4,15.4,72,30.26,10.0,SE,3.5,-,N/A,,Clear,140,2012-11-24 13:15:00
7:35 AM,23.5,15.4,71,30.25,10.0,SE,5.8,-,N/A,,Clear,130,2012-11-24 13:35:00
7:55 AM,24.3,15.8,70,30.24,10.0,SE,8.1,-,N/A,,Clear,130,2012-11-24 13:55:00
8:15 AM,24.8,16.3,70,30.23,10.0,SE,9.2,-,N/A,,Clear,130,2012-11-24 14:15:00
8:35 AM,26.1,15.6,65,30.23,10.0,SSE,9.2,-,N/A,,Clear,150,2012-11-24 14:35:00
8:55 AM,27.1,15.3,61,30.22,10.0,SSE,10.4,-,N/A,,Clear,150,2012-11-24 14:55:00
9:15 AM,28.2,16.2,61,30.21,10.0,SE,13.8,-,N/A,,Clear,140,2012-11-24 15:15:00
9:35 AM,29.3,15.4,56,30.19,10.0,SE,13.8,-,N/A,,Clear,140,2012-11-24 15:35:00
9:55 AM,30.2,15.1,53,30.18,10.0,SE,15.0,19.6,N/A,,Clear,140,2012-11-24 15:55:00
10:15 AM,31.8,15.8,52,30.17,10.0,SE,15.0,18.4,N/A,,Clear,140,2012-11-24 16:15:00
10:35 AM,32.4,15.6,50,30.16,10.0,SE,16.1,23.0,N/A,,Clear,140,2012-11-24 16:35:00
10:55 AM,33.4,16.0,49,30.14,10.0,SSE,18.4,24.2,N/A,,Clear,150,2012-11-24 16:55:00
11:15 AM,33.8,16.3,49,30.12,10.0,SE,16.1,-,N/A,,Clear,140,2012-11-24 17:15:00
11:35 AM,34.9,16.5,47,30.10,10.0,SSE,12.7,-,N/A,,Clear,150,2012-11-24 17:35:00
11:55 AM,35.8,16.9,46,30.07,10.0,SSE,15.0,20.7,N/A,,Clear,150,2012-11-24 17:55:00
12:15 PM,36.7,18.0,47,30.05,10.0,SSE,12.7,19.6,N/A,,Clear,150,2012-11-24 18:15:00
12:35 PM,38.7,17.6,43,30.03,10.0,SSE,13.8,18.4,N/A,,Clear,150,2012-11-24 18:35:00
12:55 PM,40.3,17.6,40,30.01,10.0,SSE,16.1,-,N/A,,Clear,150,2012-11-24 18:55:00
1:15 PM,40.6,17.6,39,29.99,10.0,SSE,15.0,21.9,N/A,,Clear,160,2012-11-24 19:15:00
1:35 PM,42.1,18.5,39,29.97,10.0,SSE,17.3,-,N/A,,Clear,150,2012-11-24 19:35:00
1:55 PM,43.0,18.3,37,29.96,10.0,South,16.1,21.9,N/A,,Clear,170,2012-11-24 19:55:00
2:15 PM,42.8,18.7,38,29.95,10.0,SSE,13.8,21.9,N/A,,Clear,160,2012-11-24 20:15:00
2:35 PM,43.9,19.6,38,29.93,10.0,South,10.4,19.6,N/A,,Clear,170,2012-11-24 20:35:00
2:55 PM,45.0,20.3,38,29.92,10.0,SSE,17.3,20.7,N/A,,Clear,160,2012-11-24 20:55:00
3:15 PM,44.6,20.3,38,29.91,10.0,South,9.2,19.6,N/A,,Clear,170,2012-11-24 21:15:00
3:35 PM,44.4,20.7,39,29.91,10.0,SSE,11.5,16.1,N/A,,Clear,160,2012-11-24 21:35:00
3:55 PM,44.6,21.0,39,29.90,10.0,SSE,9.2,-,N/A,,Clear,160,2012-11-24 21:55:00
4:15 PM,44.6,21.2,39,29.89,10.0,SSE,10.4,-,N/A,,Clear,160,2012-11-24 22:15:00
4:35 PM,43.5,21.9,42,29.89,10.0,SE,5.8,-,N/A,,Clear,140,2012-11-24 22:35:00
4:55 PM,43.0,22.1,44,29.89,10.0,SSE,3.5,-,N/A,,Clear,150,2012-11-24 22:55:00
5:15 PM,42.8,22.5,45,29.88,10.0,ESE,3.5,-,N/A,,Clear,120,2012-11-24 23:15:00
5:35 PM,43.3,23.4,45,29.88,10.0,SSE,3.5,-,N/A,,Clear,160,2012-11-24 23:35:00
5:55 PM,45.1,23.9,43,29.88,10.0,SSE,3.5,-,N/A,,Clear,150,2012-11-24 23:55:00
6:15 PM,45.0,24.1,44,29.88,10.0,SSE,3.5,-,N/A,,Clear,160,2012-11-25 00:15:00
6:35 PM,44.1,24.4,46,29.87,10.0,SE,3.5,-,N/A,,Clear,140,2012-11-25 00:35:00
6:55 PM,42.6,24.6,49,29.87,10.0,SE,3.5,-,N/A,,Clear,130,2012-11-25 00:55:00
7:15 PM,41.5,23.9,50,29.87,10.0,SE,4.6,-,N/A,,Clear,130,2012-11-25 01:15:00
7:35 PM,40.6,24.6,53,29.87,10.0,Calm,Calm,-,N/A,,Clear,0,2012-11-25 01:35:00
7:55 PM,39.4,23.9,54,29.87,10.0,Calm,Calm,-,N/A,,Clear,0,2012-11-25 01:55:00
8:15 PM,39.4,24.4,55,29.88,10.0,Calm,Calm,-,N/A,,Scattered Clouds,0,2012-11-25 02:15:00
8:35 PM,39.2,24.8,56,29.86,10.0,Calm,Calm,-,N/A,,Clear,0,2012-11-25 02:35:00
8:55 PM,37.6,24.8,60,29.86,10.0,Calm,Calm,-,N/A,,Clear,0,2012-11-25 02:55:00
9:15 PM,36.9,25.7,64,29.86,10.0,Calm,Calm,-,N/A,,Clear,0,2012-11-25 03:15:00
9:35 PM,35.6,26.2,69,29.86,10.0,Calm,Calm,-,N/A,,Clear,0,2012-11-25 03:35:00
9:55 PM,35.4,26.1,69,29.87,10.0,Calm,Calm,-,N/A,,Scattered Clouds,0,2012-11-25 03:55:00
10:15 PM,35.6,25.5,67,29.86,10.0,Calm,Calm,-,N/A,,Scattered Clouds,0,2012-11-25 04:15:00
10:35 PM,35.8,25.7,67,29.86,10.0,Calm,Calm,-,N/A,,Scattered Clouds,0,2012-11-25 04:35:00
10:55 PM,36.0,26.6,69,29.87,10.0,Calm,Calm,-,N/A,,Clear,0,2012-11-25 04:55:00
11:15 PM,35.8,26.8,70,29.86,10.0,Calm,Calm,-,N/A,,Clear,0,2012-11-25 05:15:00
11:35 PM,35.2,26.8,71,29.87,10.0,Calm,Calm,-,N/A,,Clear,0,2012-11-25 05:35:00
11:55 PM,35.8,26.6,69,29.88,10.0,Calm,Calm,-,N/A,,Clear,0,2012-11-25 05:55:00